Location: Unspecified
(47.6578°N, 23.5640°E)
Time: 14:29:48
(UTC+02:00)

ISS - Pass Details

Date: 29 November 2017
Orbit: 403 x 407 km, 51.6° (Epoch: 12 December)

Event Time Altitude Azimuth Distance (km) Brightness Sun altitude
Rises 18:21:39 0° 222° (SW) 2,319 1.0 -17.0°
Reaches altitude 10° 18:23:49 10° 214° (SSW) 1,462 -0.4 -17.3°
Maximum altitude 18:26:52 36° 145° (SE) 658 -3.0 -17.8°
Enters shadow 18:26:58 36° 141° (SE) 660 -3.0 -17.9°
